Weather in Anapa

Russia / Krasnodar Krai     44°53′41″N   37°18′58″E
temp.,
°C
wind,
m/s
gust,
m/s
humid.,
%
clouds,
%
prec.,
mm/h
press.,
hPa
HPBL,
m
27 october, wed
wed2700:00+6e711710 0.0 1029315
03:00+5ene710750 0.0 1028263
06:00+5e47770 0.0 1027202
09:00+7e22680 0.0 1026175
12:00+10nne11560 0.0 1026341
15:00+12wnw22570 0.0 1025505
18:00+11nnw22570 0.0 1024297
21:00+10n22570 0.0 1024313
28 october, thu
thu2800:00+10n33570 0.0 1024373
03:00+9nnw34630 0.0 1024404
06:00+9n44660 0.0 1024499
09:00+9ne23630 0.0 1025333
12:00+12nnw44550 0.0 10251026
15:00+12nnw44465 0.0 10241013
18:00+10n4455100 0.0 1025496
21:00+9nne2360100 0.0 1025343
29 october, fri
fri2900:00+9nne336235 0.0 1025319
03:00+9ne23665 0.0 1024233
06:00+9ne33705 0.0 1025196
09:00+10ene236786 0.0 1025187
12:00+12nne3464100 0.0 1025341
15:00+13ne456088 0.0 1025603
18:00+11ne57679 0.0 1026359
21:00+11ene58666 0.0 1026344
30 october, sat
sat3000:00+9ene711685 0.0 1026346
03:00+9ene7127141 0.0 1026352
06:00+8ene914740 0.0 1027382
09:00+9ene914650 0.0 1027412
12:00+13ene912530 0.0 1027627
15:00+15ene910450 0.0 1026947
18:00+13ene813475 0.0 1026767
21:00+12ene916532 0.0 1025580
31 october, sun
sun3100:00+11e915580 0.0 1025383
03:00+10e914640 0.0 1024306
06:00+9ene914730 0.0 1023300
09:00+10ene913730 0.0 1023294
12:00+14ene910563 0.0 1022381
15:00+15ene91152100 0.0 1020490
18:00+15e71262100 0.0 1020488
21:00+13e6975100 0.0 1020251